CAPE
0 0 0 0 0 0 0 0 0 0 0 0 0 0 0 0 0 0 0 0 0 0 0 0 0 0 0 0 0 0 0 0 0 217 2092 2947 2823 2676 2486 2492 1803 1640 1686 1826
0 0 0 0 0 0 0 0 0 0 0 0 0 0 0 0 0 0 0 0 0 0 0 0 0 0 0 0 0 0 0 0 49 221 873 2403 2930 2996 2599 2622 2416 2185 1834 1647
0 0 0 0 0 0 0 0 0 0 0 0 0 0 0 0 0 0 0 0 0 0 0 0 0 0 0 0 0 0 0 50 153 324 76 1475 2206 2492 2436 2457 2288 2277 2463 1967
0 0 0 0 0 0 0 0 0 0 0 0 0 0 0 0 0 0 0 0 0 0 0 0 0 0 0 0 0 0 0 0 0 0 158 277 1218 2098 2423 2195 2565 2573 2272 2287
0 0 0 0 0 0 0 0 0 0 0 0 0 0 0 0 0 0 0 0 0 0 0 0 0 0 0 0 0 0 0 0 0 0 66 140 143 1247 2006 2528 2249 2190 2395 2479
0 0 0 0 0 0 0 0 0 0 0 0 0 0 0 0 0 0 0 0 0 0 0 0 0 0 1 1 1 2 1 4 0 0 50 138 673 416 1798 2026 2240 2194 2233 2391
0 0 0 0 0 0 0 0 0 2 1 0 1 0 0 0 0 0 0 0 0 0 0 0 0 0 0 0 1 2 9 55 78 51 44 177 251 910 1476 1911 2228 2128 2059 2252
0 7 6 1 0 0 1 0 2 6 12 3 0 0 0 0 0 0 0 0 0 0 0 0 0 5 0 6 18 17 35 67 65 51 113 200 364 892 1348 2120 1972 1925 1965 1992
2 0 0 0 0 0 0 0 2 1 0 0 0 0 0 0 0 0 0 0 1 0 0 0 3 8 6 19 33 50 87 112 93 267 211 360 412 526 1235 1710 1918 1722 2020 1729
0 0 0 1 0 0 0 0 0 0 0 0 0 0 0 0 0 0 0 0 2 0 7 13 17 21 25 24 31 65 181 109 167 177 334 241 436 769 944 1469 1888 1794 1833 1161
0 12 0 0 0 0 0 0 0 0 20 0 0 0 0 0 0 0 0 0 0 0 6 2 3 14 31 34 29 41 66 34 23 46 167 245 353 510 777 951 1419 1670 545 0
7 7 6 4 3 0 0 0 1 0 0 1 11 0 0 0 0 0 0 1 2 8 7 2 16 25 23 21 28 22 29 14 3 13 7 137 195 280 466 702 868 503 147 0
5 14 10 7 4 1 0 0 0 0 0 1 0 0 0 0 0 0 2 0 0 23 11 5 25 30 29 25 18 11 13 14 7 0 0 1 112 141 196 643 743 358 167 7
0 0 13 10 13 1 2 17 3 0 0 0 0 4 11 7 0 0 0 9 10 3 1 0 0 0 0 4 7 6 2 10 12 33 27 8 8 33 88 189 191 472 108 395
4 1 10 8 6 0 0 6 1 2 0 1 0 2 2 0 0 18 15 1 0 0 0 0 0 0 0 0 0 0 0 0 0 0 0 0 0 10 5 85 96 109 178 279
12 1 10 1 3 13 7 8 3 0 0 0 0 0 1 15 0 0 0 0 0 0 0 0 0 0 0 0 0 0 0 0 0 0 0 0 0 0 0 20 20 94 118 430
6 10 8 3 8 8 2 1 0 1 4 0 2 8 1 0 0 0 0 0 0 0 0 0 0 0 0 0 2 3 2 0 0 0 0 0 0 0 0 2 19 93 40 125
16 14 14 0 3 5 0 0 5 5 1 1 1 15 2 0 0 0 0 0 0 0 0 0 0 0 0 7 9 14 13 10 15 11 9 1 0 1 0 0 3 29 54 20
4 14 0 7 10 0 0 11 27 26 11 36 7 0 0 0 0 0 0 0 0 0 0 2 0 3 10 16 15 15 19 15 8 17 16 2 19 0 0 0 0 2 15 24
4 9 7 7 3 1 40 22 1 0 0 8 0 0 0 0 0 0 0 0 0 0 0 0 1 7 10 8 9 11 8 10 6 10 16 21 21 6 0 6 0 0 2 35
5 10 2 4 1 0 44 14 2 11 19 1 0 0 0 0 0 0 0 0 0 0 0 1 8 8 6 4 3 3 4 3 3 4 4 6 8 11 8 0 0 0 0 3
4 4 1 0 3 1 31 18 14 8 5 0 0 0 0 0 0 0 0 0 0 0 0 5 7 5 3 4 4 4 4 2 2 2 2 3 3 3 7 4 0 0 0 1
1 9 15 13 12 31 61 40 19 0 0 0 0 0 0 0 0 0 0 0 0 2 6 7 5 4 5 4 3 3 1 1 1 2 2 1 4 3 2 2 7 0 0 0
18 9 0 10 3 2 36 17 4 1 1 1 0 0 0 0 0 0 0 0 2 4 6 5 4 4 3 2 2 2 1 0 1 2 2 3 3 2 3 6 8 7 1 0
0 4 13 16 21 31 16 8 4 3 0 0 0 0 0 0 0 0 0 1 4 5 5 4 4 3 3 2 2 2 0 0 1 1 1 5 1 3 2 4 3 6 5 2
6 5 8 11 23 2 10 0 5 0 0 0 0 0 0 0 0 0 1 4 4 4 3 4 3 3 3 3 3 1 0 1 1 5 7 3 5 4 3 3 5 2 8 3
CIN
-0 -0 -0 -0 -0 -0 -0 -0 -0 -0 -0 -0 -0 -0 -0 -0 -0 -0 -0 -0 -0 -0 -0 -0 -0 -0 -0 -0 -0 -0 -0 -0 -0 -111 -4 -2 -6 -11 -9 -9 -50 -86 -70 -80
-0 -0 -0 -0 -0 -0 -0 -0 -0 -0 -0 -0 -0 -0 -0 -0 -0 -0 -0 -0 -0 -0 -0 -0 -0 -0 -0 -0 -0 -0 -0 -0 -146 -80 -43 -1 -2 -6 -12 -4 -1 -2 -27 -95
-0 -2 -0 -0 -0 -0 -0 -0 -0 -0 -0 -0 -0 -0 -0 -0 -0 -0 -0 -0 -0 -0 -0 -0 -0 -0 -0 -0 -0 -0 -0 -26 -110 -69 -145 -5 -2 -2 -1 -3 -3 -2 -6 -54
-0 -0 -0 -0 -0 -0 -0 -0 -0 -0 -0 -0 -0 -0 -0 -0 -0 -0 -0 -0 -0 -0 -0 -0 -0 -0 -0 -0 -0 -0 -0 -0 -0 -0 -117 -65 -7 -1 -9 -26 -9 -5 -14 -5
-0 -0 -0 -0 -0 -0 -0 -0 -0 -0 -0 -0 -0 -0 -0 -0 -0 -0 -0 -0 -0 -0 -0 -0 -0 -0 -0 -0 -0 -0 -0 -0 -0 -1 -64 -81 -69 -6 -1 -2 -8 -5 -5 -9
-0 -0 -0 -0 -0 -2 -0 -0 -0 -0 -0 -0 -0 -0 -0 -0 -0 -0 -0 -0 -0 -0 -0 -0 -0 -0 -2 -6 -6 -5 -6 -4 -0 -0 -100 -55 -6 -41 -3 -2 -6 -15 -14 -10
-0 -0 -0 -0 -0 -0 -0 -0 -0 -1 -8 -0 -7 -0 -0 -0 -0 -0 -0 -0 -0 -0 -0 -0 -0 -0 -0 -0 -6 -35 -18 -5 -7 -10 -64 -51 -42 -6 -6 -6 -3 -3 -15 -5
-3 -5 -17 -2 -0 -0 -1 -12 -16 -3 -4 -10 -5 -0 -0 -0 -0 -0 -0 -0 -0 -0 -0 -0 -0 -2 -0 -19 -16 -10 -14 -10 -15 -13 -9 -24 -53 -10 -4 -2 -8 -2 -5 -25
-7 -0 -0 -0 -0 -0 -0 -0 -10 -12 -0 -0 -0 -0 -0 -0 -0 -0 -0 -0 -2 -0 -0 -0 -2 -5 -13 -10 -4 -11 -12 -14 -9 -3 -8 -3 -42 -41 -2 -4 -19 -23 -3 -17
-0 -0 -0 -2 -0 -0 -0 -0 -0 -0 -0 -1 -0 -0 -0 -0 -0 -0 -0 -0 -1 -0 -3 -5 -3 -2 -6 -8 -8 -5 -6 -7 -6 -5 -7 -5 -13 -10 -13 -6 -10 -16 -18 -38
-0 -4 -0 -0 -0 -0 -0 -0 -0 -0 -5 -0 -0 -0 -0 -0 -0 -0 -0 -0 -0 -0 -2 -5 -7 -5 -4 -2 -4 -8 -8 -42 -67 -39 -4 -6 -27 -31 -35 -25 -9 -6 -127 -0
-8 -6 -2 -3 -4 -0 -0 -0 -7 -0 -0 -3 -2 -0 -0 -0 -0 -0 -0 -5 -6 -5 -13 -16 -3 -2 -2 -11 -13 -4 -5 -13 -17 -91 -120 -32 -35 -51 -41 -53 -29 -151 -298 -0
-3 -1 -1 -3 -2 -2 -2 -0 -0 -0 -0 -5 -1 -0 -0 -0 -2 -4 -8 -7 -0 -5 -7 -7 -3 -3 -2 -3 -4 -7 -4 -8 -13 -0 -1 -3 -42 -44 -65 -16 -10 -140 -244 -354
-0 -0 -2 -1 -5 -13 -5 -3 -2 -0 -0 -1 -3 -7 -6 -14 -0 -0 -0 -7 -10 -7 -7 -0 -0 -0 -0 -10 -15 -17 -20 -36 -27 -8 -3 -7 -8 -99 -54 -56 -96 -67 -235 -145
-5 -2 -2 -2 -2 -2 -0 -17 -12 -9 -4 -1 -1 -9 -10 -0 -0 -12 -9 -19 -0 -0 -0 -0 -0 -0 -0 -0 -0 -0 -0 -0 -0 -0 -0 -0 -0 -11 -1 -38 -73 -119 -167 -24
-4 -1 -1 -2 -3 -2 -4 -6 -3 -4 -4 -0 -0 -2 -12 -10 -7 -3 -0 -0 -0 -0 -0 -0 -0 -0 -0 -0 -0 -0 -0 -0 -0 -0 -0 -0 -0 -0 -0 -1 -52 -39 -92 -73
-0 -0 -2 -1 -1 -4 -4 -2 -0 -6 -1 -0 -4 -4 -5 -16 -0 -0 -0 -0 -0 -0 -0 -0 -0 -0 -0 -0 -0 -0 -0 -0 -0 -0 -0 -0 -0 -0 -0 -11 -5 -18 -102 -55
-0 -0 -0 -0 -1 -2 -0 -0 -7 -13 -6 -8 -4 -4 -35 -0 -0 -0 -0 -0 -0 -0 -0 -0 -0 -0 -0 -0 -0 -0 -0 -0 -0 -0 -0 -0 -0 -3 -0 -0 -8 -8 -59 -118
-2 -0 -0 -0 -1 -5 -0 -4 -12 -37 -6 -20 -28 -0 -0 -0 -0 -0 -0 -0 -0 -0 -0 -1 -0 -0 -0 -0 -0 -0 -0 -0 -0 -0 -0 -1 -0 -0 -0 -0 -0 -1 -14 -45
-2 -0 -0 -1 -4 -0 -8 -5 -2 -2 -1 -14 -0 -0 -0 -0 -0 -0 -0 -0 -0 -0 -0 -0 -0 -0 -0 -0 -0 -0 -0 -0 -0 -0 -0 -0 -0 -0 -0 -0 -0 -0 -3 -34
-0 -1 -1 -2 -1 -0 -8 -8 -2 -8 -11 -1 -0 -0 -0 -0 -0 -0 -0 -0 -0 -0 -0 -0 -0 -0 -0 -0 -0 -0 -0 -0 -0 -0 -0 -0 -0 -0 -1 -0 -0 -0 -0 -3
-2 -1 -1 -3 -1 -1 -5 -2 -8 -3 -30 -0 -0 -0 -0 -0 -0 -0 -0 -0 -0 -0 -0 -0 -0 -0 -0 -0 -0 -0 -0 -0 -0 -0 -0 -0 -0 -0 -0 -0 -0 -0 -0 -0
-0 -5 -0 -1 -1 -8 -2 -2 -1 -0 -0 -0 -0 -0 -0 -0 -0 -0 -0 -0 -0 -0 -0 -0 -0 -0 -0 -0 -0 -0 -0 -0 -0 -0 -0 -0 -0 -0 -0 -0 -0 -0 -0 -0
-3 -13 -0 -0 -2 -4 -5 -2 -3 -2 -1 -1 -0 -0 -0 -0 -0 -0 -0 -0 -0 -0 -0 -0 -0 -0 -0 -0 -0 -0 -0 -0 -0 -0 -0 -0 -0 -0 -0 -0 -0 -0 -0 -1
-2 -8 -3 -2 -4 -2 -12 -24 -8 -1 -1 -0 -0 -0 -0 -0 -0 -1 -0 -0 -0 -0 -0 -0 -0 -0 -0 -0 -0 -0 -0 -0 -0 -0 -1 -0 -0 -0 -0 -0 -0 -0 -0 -3
-4 -5 -7 -2 -3 -4 -1 -2 -3 -1 -0 -0 -0 -0 -0 -0 -0 -0 -0 -0 -0 -0 -0 -0 -0 -0 -0 -0 -0 -0 -0 -1 -0 -0 -0 -0 -0 -0 -0 -0 -0 -1 -1 -5
Wind_Speed
17 23 25 22 18 31 33 28 25 13 14 20 22 25 28 30 30 29 28 27 25 23 23 19 19 21 23 24 26 25 26 29 33 33 30 29 30 31 31 31 29 26 26 25
25 25 28 23 24 22 26 26 28 26 26 26 27 31 30 30 31 29 28 28 26 25 25 24 25 23 22 23 24 23 24 26 29 31 33 30 30 31 32 34 33 31 30 27
30 19 18 24 22 24 25 26 27 28 26 22 26 33 30 26 19 17 17 18 20 19 21 23 25 28 27 26 27 29 30 30 30 30 35 35 34 34 34 33 32 31 30 29
30 31 22 25 28 25 24 22 24 25 27 30 27 40 34 31 27 24 21 19 16 20 24 26 26 28 29 31 32 32 33 35 35 36 37 38 40 40 37 37 35 34 33 30
29 24 31 22 25 23 26 26 25 27 32 35 36 37 35 27 22 17 13 17 21 23 27 30 31 32 33 32 32 33 34 38 40 41 41 40 43 42 43 40 38 36 36 36
32 28 23 26 22 23 24 27 31 34 35 41 38 33 36 26 15 14 16 20 23 26 27 29 31 31 31 32 34 36 37 39 40 44 47 46 44 46 44 44 42 40 38 37
22 27 29 25 28 26 25 26 33 36 30 33 25 26 23 20 14 15 19 23 23 25 26 29 30 32 33 34 34 37 39 40 38 41 45 49 48 44 46 45 45 44 41 40
27 22 19 24 21 23 25 28 29 32 34 34 33 23 24 19 16 16 21 23 24 23 27 28 31 30 32 32 34 36 38 41 43 43 45 45 48 47 44 45 48 48 46 44
24 26 16 17 20 22 23 27 26 32 34 36 34 37 25 10 13 14 17 17 19 23 26 28 26 25 27 29 29 30 36 37 39 41 44 45 45 46 46 47 47 52 52 51
21 31 28 24 19 24 28 28 30 25 28 30 25 23 14 14 18 20 24 25 25 26 27 28 25 23 23 25 25 25 27 31 36 39 42 43 44 43 45 44 47 49 51 50
24 25 24 24 21 17 22 23 26 30 24 27 29 23 13 24 23 25 27 27 25 25 26 27 25 23 23 24 25 26 29 33 34 40 40 42 43 43 41 40 46 47 39 38
19 21 23 21 16 20 25 25 21 25 26 26 26 27 28 24 22 21 21 22 29 29 27 26 23 25 26 27 26 26 29 32 38 40 41 41 42 42 44 45 40 34 34 39
18 19 27 25 23 16 24 20 24 29 27 26 31 30 30 28 22 26 26 34 33 28 27 29 31 31 31 32 33 34 35 34 35 42 44 44 41 42 43 41 39 35 34 36
17 21 20 22 21 22 21 24 18 19 24 28 27 30 24 25 28 34 36 33 33 35 38 40 38 38 40 41 42 42 42 41 42 41 40 43 44 41 43 42 41 34 28 25
17 25 25 30 34 22 22 33 33 29 29 32 31 31 34 36 35 32 32 35 39 43 46 45 44 44 45 45 46 47 47 48 49 49 48 47 47 46 42 43 41 41 40 16
22 23 26 30 30 31 34 32 39 39 37 39 39 39 32 29 34 30 34 40 45 48 47 45 48 49 48 47 49 50 50 52 53 53 56 54 51 50 48 44 44 39 40 39
18 17 22 28 27 29 32 35 38 36 36 34 35 33 30 28 31 36 42 46 46 45 48 51 47 44 44 46 51 40 41 44 46 51 56 55 60 59 55 50 43 44 41 39
15 17 18 24 27 25 27 25 22 23 26 25 28 29 28 32 36 40 43 38 45 49 49 48 45 45 48 43 40 40 39 40 37 38 40 43 49 57 57 53 48 45 43 41
6 14 22 23 27 33 32 24 20 22 22 23 25 30 32 36 39 40 37 46 49 50 48 47 52 50 39 34 34 34 35 36 34 37 36 33 36 47 56 57 51 47 46 40
5 2 18 24 27 27 20 15 17 22 28 23 28 30 33 36 39 41 47 49 50 46 50 56 38 31 31 30 31 32 34 30 30 29 25 26 29 21 40 53 52 47 46 45
2 4 13 27 30 29 17 15 21 25 24 26 29 31 34 36 38 41 44 48 52 48 55 39 25 26 25 26 27 28 28 24 25 26 27 28 33 25 19 48 50 46 45 45
12 13 13 23 29 32 18 22 23 22 25 28 32 32 34 36 38 42 47 47 48 51 45 24 23 21 23 22 23 24 22 22 22 22 22 20 21 38 35 21 50 47 45 44
17 10 19 19 19 20 21 22 21 22 27 31 32 32 34 36 40 45 45 44 44 41 28 20 20 20 21 21 22 21 19 16 19 19 17 15 14 22 38 41 34 46 47 45
15 8 15 18 15 19 25 17 20 24 28 30 30 31 34 37 40 45 43 43 40 30 24 20 18 19 20 21 21 19 15 15 18 19 18 16 14 14 17 33 38 39 50 46
17 16 19 25 22 21 19 21 24 26 27 28 28 31 33 37 42 42 38 38 34 26 24 17 16 18 20 21 20 17 13 17 21 20 16 12 7 7 11 18 33 38 44 45
25 25 26 26 20 21 21 17 20 26 26 25 28 31 33 36 40 41 38 37 28 26 22 16 14 17 20 19 21 16 15 21 24 25 21 16 6 1 4 18 31 38 40 44
Wind_Direction
260 252 252 262 269 257 265 274 281 296 291 288 289 291 290 290 293 295 296 298 300 303 306 305 302 299 298 298 300 297 295 292 289 285 275 272 269 268 267 266 259 257 256 252
249 260 255 269 270 277 276 280 276 285 291 292 291 289 293 293 292 294 295 296 299 304 304 306 308 310 310 306 300 300 298 296 292 291 285 272 270 269 269 268 265 262 257 250
240 261 268 270 278 275 278 279 280 283 289 295 296 290 294 296 296 301 306 307 308 307 307 308 306 306 312 314 314 309 308 307 301 294 289 284 276 274 269 267 265 258 257 248
252 257 275 269 266 270 278 281 282 286 286 285 291 285 291 295 297 299 300 298 318 321 321 320 319 316 314 311 311 310 307 304 302 297 291 285 278 273 270 267 265 260 255 253
260 275 260 273 269 276 275 282 288 286 281 281 282 285 289 298 299 305 322 321 323 321 315 315 313 312 310 310 309 309 309 305 302 298 294 286 282 277 272 270 265 261 261 256
264 280 282 274 281 286 289 289 284 280 281 274 280 287 287 300 312 318 322 323 320 320 320 318 318 315 313 316 310 309 308 307 304 299 292 288 280 279 275 269 266 264 261 257
289 281 275 280 280 285 287 286 286 281 281 283 302 298 301 313 328 318 320 321 325 326 327 325 321 318 316 316 315 311 310 307 308 305 298 289 283 277 275 270 266 263 260 257
289 289 298 301 292 285 289 288 286 285 280 285 290 302 306 315 321 326 322 326 325 325 323 321 320 319 320 318 318 318 313 308 307 308 303 297 285 281 276 272 267 264 261 260
295 289 309 305 295 295 290 290 303 288 286 286 289 291 305 328 337 345 340 335 329 327 328 326 326 330 327 327 326 323 316 312 311 308 304 300 293 283 279 272 270 265 264 265
304 291 291 297 299 293 288 290 288 289 288 288 294 298 321 329 330 331 330 331 333 330 326 332 335 335 335 333 329 328 322 319 315 312 304 300 298 292 287 278 272 268 265 267
303 300 297 298 291 297 298 289 289 284 283 288 289 294 338 323 324 323 324 326 326 329 331 333 336 335 334 332 331 328 323 318 317 311 310 304 300 296 291 290 276 273 269 268
317 312 301 297 294 294 296 291 289 284 282 285 290 291 301 323 326 328 326 328 324 329 332 334 334 331 329 327 325 327 324 320 312 309 306 307 302 298 291 286 291 281 273 270
314 309 300 298 296 292 288 291 289 287 287 284 289 297 303 312 319 325 327 316 321 331 333 334 332 332 330 328 326 324 320 317 313 303 301 301 301 297 295 293 288 283 278 272
317 305 299 298 308 311 289 286 295 290 283 287 290 298 310 315 321 317 311 321 325 325 321 323 329 330 328 325 323 322 319 317 314 312 303 295 296 298 292 291 288 287 280 269
311 300 296 293 289 297 294 283 280 286 286 284 291 298 304 309 312 314 318 320 317 312 312 322 326 326 322 320 318 315 312 309 306 301 298 294 292 292 293 285 287 282 274 238
310 301 301 295 291 289 286 283 276 277 279 279 281 289 305 317 301 315 315 312 306 308 321 326 323 322 323 321 317 313 310 305 302 297 290 287 286 283 284 284 279 282 276 273
312 311 307 298 295 290 284 276 272 278 279 278 284 293 312 308 307 310 308 309 315 323 325 323 327 327 324 321 317 315 313 310 304 298 290 285 279 276 276 278 275 271 272 270
308 307 304 297 293 289 280 286 291 287 291 292 293 305 304 301 297 304 310 327 323 326 328 329 330 328 325 323 319 316 315 313 309 305 298 290 284 273 268 268 272 265 265 269
275 292 291 290 283 270 272 284 294 297 294 313 313 301 294 296 297 304 326 323 325 328 331 332 329 329 328 327 326 323 321 319 314 309 304 298 289 277 267 260 263 264 260 263
331 214 284 283 277 275 293 302 306 299 289 317 313 296 295 299 293 303 313 315 324 333 327 312 303 333 335 334 332 329 326 323 319 316 306 299 294 271 274 259 258 260 260 256
354 310 295 277 267 269 307 312 303 292 299 320 304 294 297 300 299 294 302 314 312 328 315 303 329 336 338 339 337 332 332 324 320 319 313 302 292 278 262 260 255 258 257 255
302 310 312 279 261 254 308 295 293 308 312 320 304 297 296 296 296 303 311 307 313 312 305 316 331 331 340 340 339 337 334 331 327 323 317 305 291 280 279 259 250 252 252 252
306 305 298 295 290 298 292 296 316 323 316 319 300 299 301 299 304 314 308 307 309 306 303 327 336 331 341 346 347 341 333 328 333 329 321 308 295 286 270 264 262 247 246 246
324 339 307 304 312 309 264 326 329 327 323 318 301 305 305 306 310 313 310 310 306 303 305 322 336 342 342 350 350 347 338 335 341 337 339 327 312 284 272 263 257 248 238 241
317 317 306 287 296 298 323 325 328 329 321 304 301 307 306 311 316 316 307 307 304 303 305 331 337 346 351 355 354 355 352 348 353 351 342 329 294 240 258 261 254 248 239 235
301 297 288 283 297 301 319 346 341 318 296 296 304 305 312 317 323 320 311 309 304 305 305 322 335 355 359 1 4 4 4 9 4 13 15 12 0 41 274 268 249 243 240 231